| time (UTC) | temp F | wind direction | speed knots | gust knots | rain 1hr in | rain 24hr in | rain mn in | humidity % | barometer mb |
| 20260510214400 | 77 | 202 | 0.0 | 3.5 | 0.00 | 0.00 | 0.00 | 67 | 1016.1 |
| 20260510213900 | 77 | 203 | 0.0 | 3.5 | 0.00 | 0.00 | 0.00 | 68 | 1016.1 |
| 20260510213337 | 77 | 150 | 0.0 | 3.5 | 0.00 | 0.00 | 0.00 | 68 | 1016.1 |
| 20260510212811 | 77 | 150 | 0.0 | 3.5 | 0.00 | 0.00 | 0.00 | 67 | 1016.2 |
| 20260510212306 | 77 | 173 | 0.0 | 0.0 | 0.00 | 0.00 | 0.00 | 69 | 1016.1 |
| 20260510211801 | 77 | 173 | 0.0 | 0.0 | 0.00 | 0.00 | 0.00 | 69 | 1016.1 |
| 20260510211248 | 77 | 173 | 0.0 | 0.0 | 0.00 | 0.00 | 0.00 | 68 | 1016.1 |
| 20260510210747 | 77 | 173 | 0.0 | 0.9 | 0.00 | 0.00 | 0.00 | 69 | 1016.2 |
| 20260510210247 | 77 | 173 | 0.0 | 0.0 | 0.00 | 0.00 | 0.00 | 67 | 1016.2 |
| 20260510205726 | 77 | 173 | 0.0 | 0.0 | 0.00 | 0.00 | 0.00 | 69 | 1016.1 |
| 20260510204710 | 76 | 173 | 0.0 | 0.9 | 0.00 | 0.00 | 0.00 | 69 | 1016.1 |
| 20260510203701 | 76 | 173 | 0.0 | 0.9 | 0.00 | 0.00 | 0.00 | 67 | 1016.2 |
| 20260510203201 | 76 | 169 | 0.0 | 0.0 | 0.00 | 0.00 | 0.00 | 67 | 1016.3 |
| 20260510202650 | 76 | 169 | 0.0 | 0.0 | 0.00 | 0.00 | 0.00 | 67 | 1016.2 |
| 20260510202135 | 76 | 169 | 0.0 | 0.0 | 0.00 | 0.00 | 0.00 | 66 | 1016.4 |
| 20260510201618 | 76 | 169 | 0.0 | 3.5 | 0.00 | 0.00 | 0.00 | 66 | 1016.4 |
| 20260510201052 | 76 | 169 | 0.0 | 3.5 | 0.00 | 0.00 | 0.00 | 67 | 1016.4 |
| 20260510200548 | 76 | 84 | 0.0 | 3.5 | 0.00 | 0.00 | 0.00 | 68 | 1016.3 |
| 20260510200030 | 76 | 218 | 0.0 | 3.5 | 0.00 | 0.00 | 0.00 | 68 | 1016.4 |
| 20260510195531 | 76 | 216 | 0.0 | 1.7 | 0.00 | 0.00 | 0.00 | 69 | 1016.5 |
| 20260510195026 | 76 | 198 | 0.0 | 0.0 | 0.00 | 0.00 | 0.00 | 69 | 1016.4 |
| 20260510194523 | 76 | 198 | 0.0 | 0.0 | 0.00 | 0.00 | 0.00 | 68 | 1016.5 |
| 20260510194003 | 76 | 267 | 0.0 | 0.0 | 0.00 | 0.00 | 0.00 | 68 | 1016.6 |
| 20260510193430 | 76 | 267 | 0.0 | 0.9 | 0.00 | 0.00 | 0.00 | 69 | 1016.6 |
| 20260510192927 | 76 | 267 | 0.0 | 1.7 | 0.00 | 0.00 | 0.00 | 69 | 1016.5 |
| 20260510192427 | 76 | 184 | 0.0 | 1.7 | 0.00 | 0.00 | 0.00 | 68 | 1016.7 |
| 20260510191928 | 77 | 187 | 0.0 | 0.9 | 0.00 | 0.00 | 0.00 | 71 | 1016.7 |
| 20260510191422 | 76 | 188 | 0.0 | 3.5 | 0.00 | 0.00 | 0.00 | 69 | 1016.7 |
| 20260510190920 | 77 | 70 | 0.0 | 3.5 | 0.00 | 0.00 | 0.00 | 66 | 1016.7 |
| 20260510185839 | 76 | 140 | 0.0 | 0.9 | 0.00 | 0.00 | 0.00 | 72 | 1016.7 |
| 20260510185339 | 76 | 176 | 0.0 | 0.9 | 0.00 | 0.00 | 0.00 | 71 | 1017.0 |
| 20260510184814 | 76 | 216 | 0.0 | 1.7 | 0.00 | 0.00 | 0.00 | 69 | 1017.1 |
| 20260510184247 | 76 | 173 | 0.9 | 4.3 | 0.00 | 0.00 | 0.00 | 70 | 1017.2 |
| 20260510183722 | 76 | 244 | 0.9 | 4.3 | 0.00 | 0.00 | 0.00 | 73 | 1017.2 |
| 20260510183200 | 75 | 270 | 0.0 | 4.3 | 0.00 | 0.00 | 0.00 | 71 | 1017.2 |
| 20260510182657 | 75 | 186 | 0.0 | 3.5 | 0.00 | 0.00 | 0.00 | 74 | 1017.2 |
| 20260510182134 | 75 | 128 | 0.0 | 4.3 | 0.00 | 0.00 | 0.00 | 74 | 1017.2 |
| 20260510181631 | 74 | 238 | 0.0 | 4.3 | 0.00 | 0.00 | 0.00 | 74 | 1017.1 |
| 20260510181104 | 74 | 250 | 0.0 | 3.5 | 0.00 | 0.00 | 0.00 | 77 | 1017.2 |
| 20260510180536 | 74 | 247 | 0.9 | 4.3 | 0.00 | 0.00 | 0.00 | 76 | 1017.3 |
| 20260510175514 | 72 | 223 | 0.9 | 4.3 | 0.00 | 0.00 | 0.00 | 80 | 1017.4 |
| 20260510174932 | 71 | 214 | 0.9 | 4.3 | 0.00 | 0.00 | 0.00 | 80 | 1017.4 |
| 20260510174430 | 71 | 166 | 0.0 | 4.3 | 0.00 | 0.00 | 0.00 | 82 | 1017.6 |
| 20260510173905 | 70 | 103 | 0.0 | 1.7 | 0.00 | 0.00 | 0.00 | 83 | 1017.7 |
| 20260510172906 | 69 | 211 | 0.0 | 1.7 | 0.00 | 0.00 | 0.00 | 84 | 1017.9 |
| 20260510172404 | 69 | 211 | 0.9 | 3.5 | 0.00 | 0.00 | 0.00 | 84 | 1018.0 |
| 20260510171905 | 69 | 211 | 0.0 | 3.5 | 0.00 | 0.00 | 0.00 | 85 | 1018.0 |
| 20260510171351 | 69 | 211 | 0.0 | 0.9 | 0.00 | 0.00 | 0.00 | 88 | 1017.9 |
| 20260510170835 | 69 | 211 | 0.0 | 0.0 | 0.00 | 0.00 | 0.00 | 88 | 1018.1 |
| 20260510170307 | 69 | 211 | 0.0 | 0.0 | 0.00 | 0.00 | 0.00 | 87 | 1018.2 |
| 20260510165742 | 69 | 211 | 0.0 | 0.0 | 0.00 | 0.00 | 0.00 | 88 | 1018.2 |
| 20260510165220 | 69 | 211 | 0.0 | 0.0 | 0.00 | 0.00 | 0.00 | 87 | 1018.3 |
| 20260510164719 | 69 | 211 | 0.0 | 0.0 | 0.00 | 0.00 | 0.00 | 87 | 1018.3 |
| 20260510164152 | 69 | 211 | 0.0 | 0.0 | 0.00 | 0.00 | 0.00 | 87 | 1018.3 |
| 20260510163651 | 69 | 211 | 0.0 | 0.0 | 0.00 | 0.00 | 0.00 | 87 | 1018.2 |
| 20260510163145 | 69 | 211 | 0.0 | 0.0 | 0.00 | 0.00 | 0.00 | 88 | 1018.1 |
| 20260510162644 | 69 | 211 | 0.0 | 0.0 | 0.00 | 0.00 | 0.00 | 89 | 1018.0 |
| 20260510162124 | 68 | 211 | 0.0 | 1.7 | 0.00 | 0.00 | 0.00 | 89 | 1018.0 |
| 20260510161554 | 68 | 211 | 0.0 | 1.7 | 0.00 | 0.00 | 0.00 | 89 | 1018.0 |
| 20260510161041 | 68 | 211 | 0.0 | 0.0 | 0.00 | 0.00 | 0.00 | 88 | 1018.0 |
| 20260510160524 | 68 | 211 | 0.0 | 0.0 | 0.00 | 0.00 | 0.00 | 89 | 1018.0 |
| 20260510160021 | 68 | 211 | 0.0 | 0.9 | 0.00 | 0.00 | 0.00 | 90 | 1018.1 |
| 20260510155522 | 67 | 215 | 0.0 | 0.9 | 0.00 | 0.00 | 0.00 | 91 | 1018.1 |
| 20260510155024 | 67 | 215 | 0.0 | 1.7 | 0.00 | 0.00 | 0.00 | 92 | 1018.1 |
| 20260510153932 | 67 | 215 | 0.0 | 1.7 | 0.00 | 0.00 | 0.00 | 94 | 1018.1 |
| 20260510153429 | 67 | 215 | 0.0 | 1.7 | 0.00 | 0.00 | 0.00 | 95 | 1018.1 |
| 20260510152902 | 66 | 208 | 0.0 | 0.9 | 0.00 | 0.00 | 0.00 | 96 | 1018.1 |
| 20260510152401 | 66 | 208 | 0.0 | 0.9 | 0.00 | 0.00 | 0.00 | 96 | 1018.1 |
| 20260510151905 | 66 | 208 | 0.0 | 0.0 | 0.00 | 0.00 | 0.00 | 96 | 1018.0 |
| 20260510151326 | 66 | 208 | 0.0 | 0.0 | 0.00 | 0.00 | 0.00 | 97 | 1018.1 |
| 20260510150820 | 66 | 208 | 0.0 | 0.0 | 0.00 | 0.00 | 0.00 | 97 | 1018.1 |
| 20260510150330 | 66 | 208 | 0.0 | 0.0 | 0.00 | 0.00 | 0.00 | 97 | 1018.1 |
| 20260510145750 | 65 | 208 | 0.0 | 0.0 | 0.00 | 0.00 | 0.00 | 98 | 1018.0 |
| 20260510145248 | 65 | 208 | 0.0 | 0.0 | 0.00 | 0.00 | 0.00 | 98 | 1018.0 |
| 20260510144731 | 65 | 208 | 0.0 | 0.0 | 0.00 | 0.00 | 0.00 | 98 | 1018.0 |
| 20260510144233 | 65 | 208 | 0.0 | 0.0 | 0.00 | 0.00 | 0.00 | 98 | 1018.0 |
| 20260510143707 | 65 | 208 | 0.0 | 0.0 | 0.00 | 0.00 | 0.00 | 99 | 1018.0 |
| 20260510143142 | 65 | 208 | 0.0 | 0.0 | 0.00 | 0.00 | 0.00 | 99 | 1018.0 |
| 20260510142138 | 65 | 208 | 0.0 | 0.0 | 0.00 | 0.00 | 0.00 | 99 | 1018.0 |
| 20260510141618 | 65 | 208 | 0.0 | 0.0 | 0.00 | 0.00 | 0.00 | 99 | 1018.1 |
| 20260510140536 | 65 | 208 | 0.0 | 0.0 | 0.00 | 0.00 | 0.00 | 99 | 1018.0 |
| 20260510135511 | 65 | 208 | 0.0 | 0.0 | 0.00 | 0.00 | 0.00 | 99 | 1017.9 |
| 20260510134948 | 65 | 208 | 0.0 | 0.0 | 0.00 | 0.00 | 0.00 | 99 | 1017.9 |
| 20260510133416 | 64 | 208 | 0.0 | 0.0 | 0.00 | 0.00 | 0.00 | 99 | 1017.9 |
| 20260510132357 | 64 | 208 | 0.0 | 0.0 | 0.00 | 0.00 | 0.00 | 99 | 1017.7 |
| 20260510131857 | 64 | 208 | 0.0 | 0.0 | 0.00 | 0.00 | 0.00 | 99 | 1017.7 |
| 20260510131337 | 64 | 208 | 0.0 | 0.0 | 0.00 | 0.00 | 0.00 | 100 | 1017.6 |
| 20260510130833 | 64 | 208 | 0.0 | 0.0 | 0.00 | 0.00 | 0.00 | 100 | 1017.5 |
| 20260510125814 | 64 | 208 | 0.0 | 0.0 | 0.00 | 0.00 | 0.00 | 100 | 1017.5 |
| 20260510124304 | 64 | 208 | 0.0 | 0.0 | 0.00 | 0.00 | 0.00 | 100 | 1017.4 |
| 20260510123752 | 64 | 208 | 0.0 | 0.0 | 0.00 | 0.00 | 0.00 | 99 | 1017.3 |
| 20260510123235 | 64 | 208 | 0.0 | 0.0 | 0.00 | 0.00 | 0.00 | 99 | 1017.2 |
| 20260510122721 | 64 | 208 | 0.0 | 0.9 | 0.00 | 0.00 | 0.00 | 99 | 1017.2 |
| 20260510121203 | 64 | 208 | 0.0 | 1.7 | 0.00 | 0.00 | 0.00 | 100 | 1017.0 |
| 20260510120659 | 64 | 208 | 0.0 | 1.7 | 0.00 | 0.00 | 0.00 | 100 | 1016.9 |
| 20260510120206 | 64 | 208 | 0.0 | 0.0 | 0.00 | 0.00 | 0.00 | 100 | 1016.8 |
| 20260510115645 | 64 | 208 | 0.0 | 0.0 | 0.00 | 0.00 | 0.00 | 100 | 1016.7 |
| 20260510115143 | 64 | 208 | 0.0 | 0.0 | 0.00 | 0.00 | 0.00 | 100 | 1016.7 |
| 20260510114623 | 64 | 208 | 0.0 | 0.0 | 0.00 | 0.00 | 0.00 | 100 | 1016.6 |
| 20260510114125 | 64 | 208 | 0.0 | 0.0 | 0.00 | 0.00 | 0.00 | 100 | 1016.5 |
| 20260510113055 | 64 | 208 | 0.0 | 0.0 | 0.00 | 0.00 | 0.00 | 100 | 1016.2 |
| 20260510112028 | 64 | 208 | 0.0 | 0.0 | 0.00 | 0.00 | 0.00 | 99 | 1015.7 |
| 20260510111501 | 64 | 208 | 0.0 | 0.0 | 0.00 | 0.00 | 0.00 | 99 | 1015.7 |
| 20260510110940 | 64 | 208 | 0.0 | 0.0 | 0.00 | 0.00 | 0.00 | 99 | 1015.7 |
| 20260510110429 | 64 | 208 | 0.0 | 0.0 | 0.00 | 0.00 | 0.00 | 99 | 1015.5 |
| 20260510105927 | 64 | 208 | 0.0 | 0.0 | 0.00 | 0.00 | 0.00 | 99 | 1015.4 |
| 20260510104925 | 64 | 208 | 0.0 | 0.0 | 0.00 | 0.00 | 0.00 | 99 | 1015.3 |
| 20260510104424 | 64 | 208 | 0.0 | 0.0 | 0.00 | 0.00 | 0.00 | 99 | 1015.2 |
| 20260510103917 | 64 | 208 | 0.0 | 0.0 | 0.00 | 0.00 | 0.00 | 99 | 1015.2 |
| 20260510103415 | 64 | 208 | 0.0 | 0.0 | 0.00 | 0.00 | 0.00 | 99 | 1015.1 |
| 20260510102901 | 64 | 208 | 0.0 | 0.0 | 0.00 | 0.00 | 0.00 | 99 | 1015.1 |
| 20260510102359 | 64 | 208 | 0.0 | 0.0 | 0.00 | 0.00 | 0.00 | 99 | 1015.0 |
| 20260510101832 | 64 | 208 | 0.0 | 0.0 | 0.00 | 0.00 | 0.00 | 99 | 1014.9 |
| 20260510101328 | 64 | 208 | 0.0 | 0.0 | 0.00 | 0.00 | 0.00 | 99 | 1014.9 |
| 20260510100805 | 64 | 208 | 0.0 | 0.0 | 0.00 | 0.00 | 0.00 | 99 | 1014.8 |
| 20260510100305 | 64 | 208 | 0.0 | 0.0 | 0.00 | 0.00 | 0.00 | 99 | 1014.8 |
| 20260510095751 | 64 | 208 | 0.0 | 0.0 | 0.00 | 0.00 | 0.00 | 99 | 1014.8 |
| 20260510095257 | 64 | 208 | 0.0 | 0.0 | 0.00 | 0.00 | 0.00 | 99 | 1014.7 |
| 20260510094749 | 63 | 208 | 0.0 | 0.0 | 0.00 | 0.00 | 0.00 | 99 | 1014.6 |
| 20260510094250 | 63 | 208 | 0.0 | 0.0 | 0.00 | 0.00 | 0.00 | 99 | 1014.5 |
| 20260510093727 | 64 | 208 | 0.0 | 0.0 | 0.00 | 0.00 | 0.00 | 99 | 1014.4 |
| 20260510093225 | 64 | 208 | 0.0 | 0.0 | 0.00 | 0.00 | 0.00 | 99 | 1014.4 |
| 20260510092722 | 64 | 208 | 0.0 | 0.0 | 0.00 | 0.00 | 0.00 | 99 | 1014.3 |
| 20260510092154 | 64 | 208 | 0.0 | 0.0 | 0.00 | 0.00 | 0.00 | 99 | 1014.3 |
| 20260510091653 | 63 | 208 | 0.0 | 0.0 | 0.00 | 0.00 | 0.00 | 99 | 1014.2 |
| 20260510091135 | 63 | 208 | 0.0 | 0.0 | 0.00 | 0.00 | 0.00 | 99 | 1014.1 |
| 20260510090609 | 63 | 208 | 0.0 | 0.0 | 0.00 | 0.00 | 0.00 | 99 | 1014.1 |
| 20260510090110 | 63 | 208 | 0.0 | 0.0 | 0.00 | 0.00 | 0.00 | 99 | 1014.0 |
| 20260510085543 | 63 | 208 | 0.0 | 0.0 | 0.00 | 0.00 | 0.00 | 99 | 1014.0 |
| 20260510085040 | 63 | 208 | 0.0 | 0.0 | 0.00 | 0.00 | 0.00 | 99 | 1013.9 |
| 20260510084514 | 63 | 208 | 0.0 | 0.0 | 0.00 | 0.00 | 0.00 | 99 | 1013.8 |
| 20260510083946 | 63 | 208 | 0.0 | 0.0 | 0.00 | 0.00 | 0.00 | 99 | 1013.8 |
| 20260510083443 | 63 | 208 | 0.0 | 0.0 | 0.00 | 0.01 | 0.00 | 99 | 1013.7 |
| 20260510082930 | 63 | 208 | 0.0 | 0.0 | 0.00 | 0.02 | 0.00 | 99 | 1013.7 |
| 20260510082427 | 63 | 208 | 0.0 | 0.0 | 0.00 | 0.03 | 0.00 | 99 | 1013.7 |
| 20260510081927 | 63 | 208 | 0.0 | 0.0 | 0.00 | 0.03 | 0.00 | 99 | 1013.7 |
| 20260510080843 | 63 | 208 | 0.0 | 0.0 | 0.00 | 0.03 | 0.00 | 99 | 1013.7 |
| 20260510080327 | 63 | 208 | 0.0 | 0.0 | 0.00 | 0.03 | 0.00 | 99 | 1013.7 |
| 20260510075814 | 63 | 208 | 0.0 | 0.0 | 0.00 | 0.03 | 0.00 | 99 | 1013.6 |
| 20260510075253 | 63 | 208 | 0.0 | 0.0 | 0.00 | 0.03 | 0.00 | 99 | 1013.6 |
| 20260510074723 | 63 | 208 | 0.0 | 0.0 | 0.00 | 0.03 | 0.00 | 99 | 1013.6 |
| 20260510073649 | 63 | 208 | 0.0 | 0.0 | 0.00 | 0.03 | 0.00 | 99 | 1013.7 |
| 20260510073137 | 63 | 208 | 0.0 | 0.0 | 0.00 | 0.03 | 0.00 | 99 | 1013.6 |
| 20260510072635 | 63 | 208 | 0.0 | 0.0 | 0.00 | 0.03 | 0.00 | 98 | 1013.7 |
| 20260510072109 | 63 | 208 | 0.0 | 0.0 | 0.00 | 0.03 | 0.00 | 98 | 1013.7 |
| 20260510071605 | 63 | 208 | 0.0 | 0.0 | 0.00 | 0.03 | 0.00 | 98 | 1013.7 |
| 20260510071106 | 63 | 208 | 0.0 | 0.0 | 0.00 | 0.03 | 0.00 | 98 | 1013.7 |
| 20260510070551 | 63 | 208 | 0.0 | 0.0 | 0.00 | 0.03 | 0.00 | 98 | 1013.7 |
| 20260510070036 | 63 | 208 | 0.0 | 0.0 | 0.00 | 0.03 | 0.00 | 98 | 1013.8 |
| 20260510065511 | 62 | 208 | 0.0 | 0.0 | 0.00 | 0.03 | 0.00 | 98 | 1013.8 |
| 20260510065009 | 62 | 208 | 0.0 | 0.0 | 0.00 | 0.03 | 0.00 | 98 | 1013.8 |
| 20260510064445 | 62 | 208 | 0.0 | 0.0 | 0.00 | 0.03 | 0.00 | 98 | 1013.9 |
| 20260510063944 | 62 | 208 | 0.0 | 0.0 | 0.00 | 0.03 | 0.00 | 98 | 1014.0 |
| 20260510063444 | 62 | 208 | 0.0 | 0.0 | 0.00 | 0.03 | 0.00 | 98 | 1014.1 |
| 20260510062443 | 62 | 208 | 0.0 | 0.0 | 0.00 | 0.03 | 0.00 | 98 | 1014.2 |
| 20260510061940 | 62 | 208 | 0.0 | 0.0 | 0.00 | 0.03 | 0.00 | 98 | 1014.1 |
| 20260510061407 | 62 | 208 | 0.0 | 0.0 | 0.00 | 0.03 | 0.00 | 98 | 1014.1 |
| 20260510060839 | 62 | 208 | 0.0 | 0.0 | 0.00 | 0.03 | 0.00 | 98 | 1014.1 |
| 20260510060336 | 62 | 208 | 0.0 | 0.0 | 0.00 | 0.03 | 0.00 | 98 | 1014.2 |
| 20260510055825 | 62 | 208 | 0.0 | 0.0 | 0.00 | 0.03 | 0.00 | 98 | 1014.1 |
| 20260510055323 | 62 | 208 | 0.0 | 0.0 | 0.00 | 0.03 | 0.00 | 97 | 1014.1 |
| 20260510053200 | 62 | 208 | 0.0 | 0.0 | 0.00 | 0.03 | 0.00 | 97 | 1014.2 |
| 20260510052646 | 62 | 208 | 0.0 | 0.0 | 0.00 | 0.03 | 0.00 | 97 | 1014.2 |
| 20260510052148 | 62 | 208 | 0.0 | 0.0 | 0.00 | 0.03 | 0.00 | 97 | 1014.3 |
| 20260510051645 | 62 | 208 | 0.0 | 0.0 | 0.00 | 0.03 | 0.00 | 97 | 1014.2 |
| 20260510051144 | 62 | 208 | 0.0 | 0.0 | 0.00 | 0.03 | 0.00 | 97 | 1014.2 |
| 20260510050617 | 62 | 208 | 0.0 | 0.0 | 0.00 | 0.03 | 0.00 | 97 | 1014.3 |
| 20260510050117 | 62 | 208 | 0.0 | 0.0 | 0.00 | 0.03 | 0.00 | 97 | 1014.3 |
| 20260510045613 | 62 | 208 | 0.0 | 0.0 | 0.00 | 0.03 | 0.03 | 97 | 1014.3 |
| 20260510045111 | 63 | 208 | 0.0 | 0.0 | 0.00 | 0.03 | 0.03 | 97 | 1014.2 |
| 20260510044608 | 63 | 208 | 0.0 | 0.0 | 0.00 | 0.03 | 0.03 | 97 | 1014.2 |
| 20260510044105 | 63 | 208 | 0.0 | 0.0 | 0.00 | 0.03 | 0.03 | 97 | 1014.2 |
| 20260510043538 | 63 | 208 | 0.0 | 0.0 | 0.00 | 0.03 | 0.03 | 97 | 1014.2 |
| 20260510043035 | 63 | 208 | 0.0 | 0.0 | 0.00 | 0.03 | 0.03 | 96 | 1014.2 |
| 20260510042516 | 63 | 208 | 0.0 | 0.0 | 0.00 | 0.03 | 0.03 | 96 | 1014.2 |
| 20260510042017 | 63 | 208 | 0.0 | 0.0 | 0.00 | 0.03 | 0.03 | 96 | 1014.4 |
| 20260510041509 | 64 | 208 | 0.0 | 0.0 | 0.00 | 0.03 | 0.03 | 96 | 1014.4 |
| 20260510040942 | 64 | 208 | 0.0 | 0.0 | 0.00 | 0.03 | 0.03 | 96 | 1014.4 |
| 20260510040441 | 64 | 208 | 0.0 | 0.0 | 0.00 | 0.03 | 0.03 | 96 | 1014.4 |
| 20260510035915 | 64 | 208 | 0.0 | 0.0 | 0.00 | 0.03 | 0.03 | 96 | 1014.4 |
| 20260510035415 | 64 | 208 | 0.0 | 0.0 | 0.00 | 0.03 | 0.03 | 96 | 1014.4 |
| 20260510034917 | 64 | 208 | 0.0 | 0.0 | 0.00 | 0.03 | 0.03 | 96 | 1014.4 |
| 20260510033912 | 64 | 208 | 0.0 | 0.0 | 0.00 | 0.03 | 0.03 | 96 | 1014.3 |
| 20260510033345 | 65 | 208 | 0.0 | 0.0 | 0.00 | 0.03 | 0.03 | 96 | 1014.3 |
| 20260510032817 | 65 | 208 | 0.0 | 0.0 | 0.00 | 0.03 | 0.03 | 96 | 1014.4 |
| 20260510032313 | 65 | 208 | 0.0 | 0.0 | 0.00 | 0.03 | 0.03 | 96 | 1014.5 |
| 20260510031816 | 65 | 208 | 0.0 | 0.0 | 0.00 | 0.03 | 0.03 | 96 | 1014.6 |
| 20260510031302 | 65 | 208 | 0.0 | 0.0 | 0.00 | 0.03 | 0.03 | 96 | 1014.5 |
| 20260510030758 | 65 | 208 | 0.0 | 0.0 | 0.00 | 0.03 | 0.03 | 96 | 1014.5 |
| 20260510030255 | 65 | 208 | 0.0 | 0.0 | 0.00 | 0.03 | 0.03 | 96 | 1014.2 |
| 20260510025753 | 65 | 208 | 0.0 | 0.0 | 0.00 | 0.03 | 0.03 | 95 | 1014.2 |
| 20260510025251 | 65 | 208 | 0.0 | 0.0 | 0.00 | 0.03 | 0.03 | 95 | 1014.4 |
| 20260510024757 | 65 | 208 | 0.0 | 0.0 | 0.00 | 0.03 | 0.03 | 95 | 1014.4 |
| 20260510024221 | 66 | 208 | 0.0 | 0.0 | 0.00 | 0.03 | 0.03 | 95 | 1014.3 |
| 20260510023656 | 66 | 208 | 0.0 | 0.0 | 0.00 | 0.03 | 0.03 | 95 | 1014.3 |
| 20260510023155 | 66 | 208 | 0.0 | 0.0 | 0.00 | 0.03 | 0.03 | 95 | 1014.2 |
| 20260510022633 | 66 | 208 | 0.0 | 0.0 | 0.00 | 0.03 | 0.03 | 95 | 1014.1 |
| 20260510022131 | 66 | 208 | 0.0 | 0.0 | 0.00 | 0.03 | 0.03 | 95 | 1014.0 |
| 20260510020554 | 66 | 208 | 0.0 | 0.0 | 0.00 | 0.03 | 0.03 | 94 | 1013.8 |
| 20260510020033 | 66 | 208 | 0.0 | 0.0 | 0.00 | 0.03 | 0.03 | 94 | 1013.7 |
| 20260510015508 | 66 | 208 | 0.0 | 0.0 | 0.00 | 0.03 | 0.03 | 94 | 1013.7 |
| 20260510015007 | 66 | 208 | 0.0 | 0.0 | 0.00 | 0.03 | 0.03 | 94 | 1013.6 |
| 20260510014500 | 66 | 208 | 0.0 | 0.0 | 0.00 | 0.03 | 0.03 | 94 | 1013.5 |
| 20260510013945 | 67 | 208 | 0.0 | 0.0 | 0.00 | 0.03 | 0.03 | 94 | 1013.4 |
| 20260510013443 | 67 | 208 | 0.0 | 0.0 | 0.00 | 0.03 | 0.03 | 94 | 1013.2 |
| 20260510012921 | 67 | 208 | 0.0 | 0.0 | 0.00 | 0.03 | 0.03 | 93 | 1013.1 |
| 20260510012404 | 67 | 208 | 0.0 | 0.0 | 0.00 | 0.03 | 0.03 | 93 | 1013.0 |
| 20260510011905 | 67 | 208 | 0.0 | 0.0 | 0.00 | 0.03 | 0.03 | 93 | 1012.9 |
| 20260510011406 | 67 | 208 | 0.0 | 0.0 | 0.00 | 0.03 | 0.03 | 93 | 1012.8 |
| 20260510010902 | 67 | 208 | 0.0 | 0.0 | 0.00 | 0.03 | 0.03 | 92 | 1012.8 |
| 20260510010343 | 68 | 208 | 0.0 | 0.0 | 0.00 | 0.03 | 0.03 | 92 | 1012.8 |
| 20260510005839 | 68 | 208 | 0.0 | 0.0 | 0.00 | 0.03 | 0.03 | 92 | 1012.7 |
| 20260510004316 | 68 | 208 | 0.0 | 0.0 | 0.00 | 0.03 | 0.03 | 91 | 1012.4 |
| 20260510003817 | 68 | 208 | 0.0 | 0.0 | 0.00 | 0.03 | 0.03 | 91 | 1012.6 |
| 20260510002742 | 69 | 208 | 0.0 | 0.0 | 0.00 | 0.03 | 0.03 | 90 | 1012.6 |
| 20260510002216 | 69 | 208 | 0.0 | 0.0 | 0.00 | 0.03 | 0.03 | 90 | 1012.6 |
| 20260510001709 | 69 | 208 | 0.0 | 0.0 | 0.00 | 0.03 | 0.03 | 90 | 1012.4 |
| 20260510001205 | 69 | 208 | 0.0 | 0.0 | 0.00 | 0.03 | 0.03 | 90 | 1012.4 |
| 20260510000718 | 69 | 208 | 0.0 | 0.0 | 0.00 | 0.03 | 0.03 | 90 | 1012.4 |
| 20260510000139 | 69 | 208 | 0.0 | 0.0 | 0.00 | 0.03 | 0.03 | 89 | 1012.3 |
| 20260509235612 | 69 | 208 | 0.0 | 0.0 | 0.00 | 0.03 | 0.03 | 89 | 1012.2 |
| 20260509235045 | 69 | 208 | 0.0 | 0.0 | 0.00 | 0.03 | 0.03 | 89 | 1012.0 |
| 20260509234542 | 69 | 208 | 0.0 | 0.0 | 0.00 | 0.03 | 0.03 | 89 | 1011.9 |
| 20260509234019 | 70 | 208 | 0.0 | 0.0 | 0.00 | 0.03 | 0.03 | 89 | 1011.9 |
| 20260509233447 | 70 | 208 | 0.0 | 0.0 | 0.00 | 0.03 | 0.03 | 88 | 1012.0 |
| 20260509232441 | 70 | 208 | 0.0 | 0.0 | 0.00 | 0.03 | 0.03 | 87 | 1011.7 |
| 20260509231938 | 70 | 208 | 0.0 | 0.0 | 0.00 | 0.03 | 0.03 | 86 | 1011.7 |
| 20260509231436 | 70 | 208 | 0.0 | 0.0 | 0.00 | 0.03 | 0.03 | 86 | 1011.7 |
| 20260509230910 | 71 | 208 | 0.0 | 0.0 | 0.00 | 0.03 | 0.03 | 85 | 1011.8 |
| 20260509225852 | 71 | 208 | 0.0 | 0.0 | 0.00 | 0.03 | 0.03 | 84 | 1011.7 |
| 20260509225325 | 71 | 208 | 0.0 | 0.0 | 0.00 | 0.03 | 0.03 | 84 | 1011.6 |
| 20260509224822 | 71 | 208 | 0.0 | 0.0 | 0.00 | 0.03 | 0.03 | 84 | 1011.4 |
| 20260509224259 | 72 | 208 | 0.0 | 0.0 | 0.00 | 0.03 | 0.03 | 83 | 1011.4 |
| 20260509223757 | 72 | 208 | 0.0 | 0.0 | 0.00 | 0.03 | 0.03 | 83 | 1011.4 |
| 20260509222231 | 72 | 208 | 0.0 | 0.0 | 0.00 | 0.03 | 0.03 | 82 | 1011.2 |
| 20260509221715 | 73 | 208 | 0.0 | 0.0 | 0.00 | 0.03 | 0.03 | 82 | 1011.2 |
| 20260509221159 | 73 | 208 | 0.0 | 0.0 | 0.00 | 0.03 | 0.03 | 81 | 1011.3 |
| 20260509220157 | 73 | 208 | 0.0 | 0.0 | 0.00 | 0.03 | 0.03 | 78 | 1011.3 |
| 20260509215635 | 73 | 208 | 0.0 | 0.0 | 0.00 | 0.03 | 0.03 | 79 | 1011.4 |
| 20260509215132 | 73 | 208 | 0.0 | 0.0 | 0.00 | 0.03 | 0.03 | 80 | 1011.1 |